Time,TemperatureF,DewpointF,PressureIn,WindDirection,WindDirectionDegrees,WindSpeedMPH,WindSpeedGustMPH,Humidity,HourlyPrecipIn,Conditions,Clouds,dailyrainin,SoftwareType,DateUTC
2013-01-17 00:00:00,54.0,50.5,28.12,WNW,282,1.0,6.0,88,0.00,00:00,,0.00,WeatherDisplay:WD co,2013-01-16 22:00:00,
2013-01-17 00:05:00,54.0,50.5,28.12,ENE,62,1.0,5.0,88,0.00,00:05,,0.00,WeatherDisplay:WD co,2013-01-16 22:05:00,
2013-01-17 00:10:00,53.8,50.3,28.13,ESE,122,1.0,6.0,88,0.00,00:10,,0.00,WeatherDisplay:WD co,2013-01-16 22:10:00,
2013-01-17 00:15:00,53.8,50.0,28.13,South,178,1.0,6.0,87,0.00,00:15,,0.00,WeatherDisplay:WD co,2013-01-16 22:15:00,
2013-01-17 00:20:00,53.6,49.5,28.14,WSW,242,1.0,5.0,86,0.00,00:20,,0.00,WeatherDisplay:WD co,2013-01-16 22:20:00,
2013-01-17 00:25:00,53.4,49.3,28.14,West,280,1.0,4.0,86,0.00,00:25,,0.00,WeatherDisplay:WD co,2013-01-16 22:25:00,
2013-01-17 00:30:00,53.2,49.5,28.14,SW,228,1.0,4.0,87,0.00,00:30,,0.00,WeatherDisplay:WD co,2013-01-16 22:30:00,
2013-01-17 00:35:00,53.2,49.5,28.14,SSW,211,2.0,4.0,87,0.00,00:35,,0.00,WeatherDisplay:WD co,2013-01-16 22:35:00,
2013-01-17 00:45:00,53.1,49.3,28.14,SSE,156,1.0,4.0,87,0.00,00:45,,0.00,WeatherDisplay:WD co,2013-01-16 22:45:00,
2013-01-17 00:50:00,52.9,49.1,28.14,SW,231,1.0,3.0,87,0.00,00:50,,0.00,WeatherDisplay:WD co,2013-01-16 22:50:00,
2013-01-17 00:55:00,52.7,48.9,28.15,West,281,1.0,4.0,87,0.00,00:55,,0.00,WeatherDisplay:WD co,2013-01-16 22:55:00,
2013-01-17 01:05:00,52.5,48.8,28.15,South,178,1.0,4.0,87,0.00,01:05,,0.00,WeatherDisplay:WD co,2013-01-16 23:05:00,
2013-01-17 01:10:00,52.3,48.3,28.15,SSW,209,1.0,4.0,86,0.00,01:10,,0.00,WeatherDisplay:WD co,2013-01-16 23:10:00,
2013-01-17 01:15:00,52.2,48.4,28.15,SSW,202,0.0,2.0,87,0.00,01:15,,0.00,WeatherDisplay:WD co,2013-01-16 23:15:00,
2013-01-17 01:25:00,51.8,48.1,28.15,West,279,0.0,1.0,87,0.00,01:25,,0.00,WeatherDisplay:WD co,2013-01-16 23:25:00,
2013-01-17 01:30:00,51.6,48.2,28.15,West,265,0.0,2.0,88,0.00,01:30,,0.00,WeatherDisplay:WD co,2013-01-16 23:30:00,
2013-01-17 01:35:00,51.4,48.3,28.16,SW,219,0.0,4.0,89,0.00,01:35,,0.00,WeatherDisplay:WD co,2013-01-16 23:35:00,
2013-01-17 01:40:00,51.4,48.6,28.16,SSW,202,0.0,2.0,90,0.00,01:40,,0.00,WeatherDisplay:WD co,2013-01-16 23:40:00,
2013-01-17 01:45:00,51.6,48.8,28.16,SSE,167,0.0,3.0,90,0.00,01:45,,0.00,WeatherDisplay:WD co,2013-01-16 23:45:00,
2013-01-17 01:50:00,51.6,48.5,28.16,South,169,1.0,4.0,89,0.00,01:50,,0.00,WeatherDisplay:WD co,2013-01-16 23:50:00,
2013-01-17 01:55:00,52.0,48.8,28.16,SW,218,0.0,2.0,89,0.00,01:55,,0.00,WeatherDisplay:WD co,2013-01-16 23:55:00,
2013-01-17 02:00:00,52.0,48.8,28.16,SW,230,0.0,2.0,89,0.00,02:00,,0.00,WeatherDisplay:WD co,2013-01-17 00:00:00,
2013-01-17 02:05:00,52.0,48.8,28.17,SW,231,0.0,2.0,89,0.00,02:05,,0.00,WeatherDisplay:WD co,2013-01-17 00:05:00,
2013-01-17 02:10:00,52.2,49.0,28.17,SW,234,0.0,2.0,89,0.00,02:10,,0.00,WeatherDisplay:WD co,2013-01-17 00:10:00,
2013-01-17 02:20:00,52.0,49.1,28.16,South,188,0.0,2.0,90,0.00,02:20,,0.00,WeatherDisplay:WD co,2013-01-17 00:20:00,
2013-01-17 02:25:00,51.8,49.0,28.16,SW,233,0.0,1.0,90,0.00,02:25,,0.00,WeatherDisplay:WD co,2013-01-17 00:25:00,
2013-01-17 02:30:00,51.8,49.0,28.15,SW,218,0.0,2.0,90,0.00,02:30,,0.00,WeatherDisplay:WD co,2013-01-17 00:30:00,
2013-01-17 02:35:00,51.8,49.0,28.16,ENE,77,0.0,1.0,90,0.00,02:35,,0.00,WeatherDisplay:WD co,2013-01-17 00:35:00,
2013-01-17 02:40:00,51.6,48.8,28.16,NNE,22,0.0,1.0,90,0.00,02:40,,0.00,WeatherDisplay:WD co,2013-01-17 00:40:00,
2013-01-17 02:50:00,51.6,49.1,28.16,NE,45,1.0,3.0,91,0.00,02:50,,0.00,WeatherDisplay:WD co,2013-01-17 00:50:00,
2013-01-17 02:55:00,51.3,48.7,28.15,NE,54,0.0,1.0,91,0.00,02:55,,0.00,WeatherDisplay:WD co,2013-01-17 00:55:00,
2013-01-17 03:00:00,51.1,48.5,28.15,NE,54,0.0,0.0,91,0.00,03:00,,0.00,WeatherDisplay:WD co,2013-01-17 01:00:00,
2013-01-17 03:05:00,50.9,48.4,28.15,ENE,58,0.0,2.0,91,0.00,03:05,,0.00,WeatherDisplay:WD co,2013-01-17 01:05:00,
2013-01-17 03:10:00,50.7,48.2,28.15,NE,54,0.0,0.0,91,0.00,03:10,,0.00,WeatherDisplay:WD co,2013-01-17 01:10:00,
2013-01-17 03:15:00,50.4,47.8,28.15,NW,312,0.0,0.0,91,0.00,03:15,,0.00,WeatherDisplay:WD co,2013-01-17 01:15:00,
2013-01-17 03:20:00,50.2,47.9,28.15,WNW,297,0.0,0.0,92,0.00,03:20,,0.00,WeatherDisplay:WD co,2013-01-17 01:20:00,
2013-01-17 03:25:00,50.0,48.1,28.15,West,268,0.0,2.0,93,0.00,03:25,,0.00,WeatherDisplay:WD co,2013-01-17 01:25:00,
2013-01-17 03:30:00,50.2,48.2,28.16,SSW,212,0.0,2.0,93,0.00,03:30,,0.00,WeatherDisplay:WD co,2013-01-17 01:30:00,
2013-01-17 03:35:00,50.0,48.1,28.16,West,265,0.0,1.0,93,0.00,03:35,,0.00,WeatherDisplay:WD co,2013-01-17 01:35:00,
2013-01-17 03:40:00,50.2,48.2,28.16,South,182,0.0,2.0,93,0.00,03:40,,0.00,WeatherDisplay:WD co,2013-01-17 01:40:00,
2013-01-17 03:45:00,50.0,48.3,28.16,SE,128,0.0,1.0,94,0.00,03:45,,0.00,WeatherDisplay:WD co,2013-01-17 01:45:00,
2013-01-17 03:50:00,50.0,48.3,28.15,South,186,0.0,2.0,94,0.00,03:50,,0.00,WeatherDisplay:WD co,2013-01-17 01:50:00,
2013-01-17 03:55:00,50.4,49.3,28.15,NNE,23,0.0,5.0,96,0.00,03:55,,0.00,WeatherDisplay:WD co,2013-01-17 01:55:00,
2013-01-17 04:00:00,51.1,49.7,28.15,NNE,17,0.0,3.0,95,0.00,04:00,,0.00,WeatherDisplay:WD co,2013-01-17 02:00:00,
2013-01-17 04:05:00,51.3,49.9,28.16,NW,323,1.0,4.0,95,0.00,04:05,,0.00,WeatherDisplay:WD co,2013-01-17 02:05:00,
2013-01-17 04:10:00,51.8,50.1,28.16,North,355,0.0,4.0,94,0.00,04:10,,0.00,WeatherDisplay:WD co,2013-01-17 02:10:00,
2013-01-17 04:15:00,52.2,50.2,28.16,NNW,344,0.0,2.0,93,0.00,04:15,,0.00,WeatherDisplay:WD co,2013-01-17 02:15:00,
2013-01-17 04:20:00,52.3,50.4,28.16,WNW,285,0.0,3.0,93,0.00,04:20,,0.00,WeatherDisplay:WD co,2013-01-17 02:20:00,
2013-01-17 04:25:00,52.3,50.4,28.16,West,265,0.0,2.0,93,0.00,04:25,,0.00,WeatherDisplay:WD co,2013-01-17 02:25:00,
2013-01-17 04:30:00,52.3,50.1,28.16,WSW,253,0.0,1.0,92,0.00,04:30,,0.00,WeatherDisplay:WD co,2013-01-17 02:30:00,
2013-01-17 04:35:00,52.3,50.1,28.16,SW,217,0.0,0.0,92,0.00,04:35,,0.00,WeatherDisplay:WD co,2013-01-17 02:35:00,
2013-01-17 04:40:00,52.0,49.4,28.16,SSW,210,0.0,2.0,91,0.00,04:40,,0.00,WeatherDisplay:WD co,2013-01-17 02:40:00,
2013-01-17 04:45:00,52.0,49.4,28.16,WSW,254,0.0,2.0,91,0.00,04:45,,0.00,WeatherDisplay:WD co,2013-01-17 02:45:00,
2013-01-17 04:50:00,51.8,49.5,28.16,West,267,0.0,1.0,92,0.00,04:50,,0.00,WeatherDisplay:WD co,2013-01-17 02:50:00,
2013-01-17 04:55:00,52.0,49.7,28.17,SSE,152,0.0,0.0,92,0.00,04:55,,0.00,WeatherDisplay:WD co,2013-01-17 02:55:00,
2013-01-17 05:00:00,52.2,49.9,28.17,ESE,112,0.0,4.0,92,0.00,05:00,,0.00,WeatherDisplay:WD co,2013-01-17 03:00:00,
2013-01-17 05:10:00,52.7,50.1,28.16,SW,216,0.0,1.0,91,0.00,05:10,,0.00,WeatherDisplay:WD co,2013-01-17 03:10:00,
2013-01-17 05:15:00,52.5,50.0,28.16,SW,219,0.0,2.0,91,0.00,05:15,,0.00,WeatherDisplay:WD co,2013-01-17 03:15:00,
2013-01-17 05:20:00,52.5,50.0,28.17,SW,228,0.0,1.0,91,0.00,05:20,,0.00,WeatherDisplay:WD co,2013-01-17 03:20:00,
2013-01-17 05:25:00,52.7,50.4,28.17,WNW,287,0.0,4.0,92,0.00,05:25,,0.00,WeatherDisplay:WD co,2013-01-17 03:25:00,
2013-01-17 05:35:00,53.6,51.0,28.18,SW,232,2.0,5.0,91,0.00,05:35,,0.00,WeatherDisplay:WD co,2013-01-17 03:35:00,
2013-01-17 05:40:00,54.0,51.1,28.18,NNE,23,0.0,4.0,90,0.00,05:40,,0.00,WeatherDisplay:WD co,2013-01-17 03:40:00,
2013-01-17 05:45:00,54.3,51.4,28.17,WNW,292,1.0,4.0,90,0.00,05:45,,0.00,WeatherDisplay:WD co,2013-01-17 03:45:00,
2013-01-17 05:50:00,54.3,51.4,28.17,WSW,247,0.0,4.0,90,0.00,05:50,,0.00,WeatherDisplay:WD co,2013-01-17 03:50:00,
2013-01-17 05:55:00,54.5,51.6,28.17,North,5,0.0,2.0,90,0.00,05:55,,0.00,WeatherDisplay:WD co,2013-01-17 03:55:00,
2013-01-17 06:00:00,54.5,51.6,28.17,NE,45,0.0,4.0,90,0.00,06:00,,0.00,WeatherDisplay:WD co,2013-01-17 04:00:00,
2013-01-17 06:05:00,54.5,51.6,28.17,East,99,0.0,2.0,90,0.00,06:05,,0.00,WeatherDisplay:WD co,2013-01-17 04:05:00,
2013-01-17 06:10:00,54.3,51.4,28.17,South,170,0.0,1.0,90,0.00,06:10,,0.00,WeatherDisplay:WD co,2013-01-17 04:10:00,
2013-01-17 06:15:00,54.1,51.3,28.17,SSW,199,0.0,2.0,90,0.00,06:15,,0.00,WeatherDisplay:WD co,2013-01-17 04:15:00,
2013-01-17 06:20:00,54.0,51.1,28.17,SW,233,0.0,2.0,90,0.00,06:20,,0.00,WeatherDisplay:WD co,2013-01-17 04:20:00,
2013-01-17 06:25:00,54.1,51.0,28.17,SW,225,0.0,2.0,89,0.00,06:25,,0.00,WeatherDisplay:WD co,2013-01-17 04:25:00,
2013-01-17 06:30:00,54.1,51.0,28.18,NE,35,0.0,2.0,89,0.00,06:30,,0.00,WeatherDisplay:WD co,2013-01-17 04:30:00,
2013-01-17 06:35:00,54.1,50.7,28.17,NW,304,0.0,2.0,88,0.00,06:35,,0.00,WeatherDisplay:WD co,2013-01-17 04:35:00,
2013-01-17 06:40:00,53.2,50.4,28.18,NNE,30,2.0,4.0,90,0.00,06:40,,0.00,WeatherDisplay:WD co,2013-01-17 04:40:00,
2013-01-17 06:45:00,52.5,50.0,28.18,NE,44,1.0,3.0,91,0.00,06:45,,0.00,WeatherDisplay:WD co,2013-01-17 04:45:00,
2013-01-17 06:50:00,51.8,49.8,28.18,North,7,0.0,5.0,93,0.00,06:50,,0.00,WeatherDisplay:WD co,2013-01-17 04:50:00,
2013-01-17 06:55:00,51.6,49.9,28.18,NE,40,0.0,2.0,94,0.00,06:55,,0.00,WeatherDisplay:WD co,2013-01-17 04:55:00,
2013-01-17 07:05:00,51.4,50.1,28.18,NNE,19,1.0,3.0,95,0.00,07:05,,0.00,WeatherDisplay:WD co,2013-01-17 05:05:00,
2013-01-17 07:10:00,51.4,50.1,28.18,NNE,14,0.0,2.0,95,0.00,07:10,,0.00,WeatherDisplay:WD co,2013-01-17 05:10:00,
2013-01-17 07:15:00,51.1,49.7,28.18,NNE,26,0.0,4.0,95,0.00,07:15,,0.00,WeatherDisplay:WD co,2013-01-17 05:15:00,
2013-01-17 07:20:00,50.9,49.8,28.18,NNE,30,1.0,3.0,96,0.00,07:20,,0.00,WeatherDisplay:WD co,2013-01-17 05:20:00,
2013-01-17 07:30:00,50.9,49.8,28.19,NNE,30,1.0,2.0,96,0.00,07:30,,0.00,WeatherDisplay:WD co,2013-01-17 05:30:00,
2013-01-17 07:35:00,50.9,49.8,28.19,NNE,16,1.0,5.0,96,0.00,07:35,,0.00,WeatherDisplay:WD co,2013-01-17 05:35:00,
2013-01-17 07:40:00,50.7,49.6,28.19,NE,56,0.0,3.0,96,0.00,07:40,,0.00,WeatherDisplay:WD co,2013-01-17 05:40:00,
2013-01-17 07:45:00,50.9,49.8,28.19,SE,131,0.0,2.0,96,0.00,07:45,,0.00,WeatherDisplay:WD co,2013-01-17 05:45:00,
2013-01-17 07:55:00,50.9,49.8,28.19,WSW,242,0.0,2.0,96,0.00,07:55,,0.00,WeatherDisplay:WD co,2013-01-17 05:55:00,
2013-01-17 08:00:00,50.7,49.6,28.19,West,268,1.0,3.0,96,0.00,08:00,,0.00,WeatherDisplay:WD co,2013-01-17 06:00:00,
2013-01-17 08:10:00,50.7,49.6,28.20,NNE,23,0.0,3.0,96,0.00,08:10,,0.00,WeatherDisplay:WD co,2013-01-17 06:10:00,
2013-01-17 08:15:00,50.5,49.4,28.20,North,6,0.0,1.0,96,0.00,08:15,,0.00,WeatherDisplay:WD co,2013-01-17 06:15:00,
2013-01-17 08:20:00,50.5,49.7,28.20,NNE,12,0.0,2.0,97,0.00,08:20,,0.00,WeatherDisplay:WD co,2013-01-17 06:20:00,
2013-01-17 08:30:00,50.5,49.7,28.20,NE,45,0.0,2.0,97,0.00,08:30,,0.00,WeatherDisplay:WD co,2013-01-17 06:30:00,
2013-01-17 08:40:00,50.7,50.2,28.22,NNE,23,1.0,3.0,98,0.00,08:40,,0.00,WeatherDisplay:WD co,2013-01-17 06:40:00,
2013-01-17 08:45:00,50.9,50.4,28.22,NE,34,0.0,3.0,98,0.00,08:45,,0.00,WeatherDisplay:WD co,2013-01-17 06:45:00,
2013-01-17 09:05:00,53.8,53.5,28.22,NE,45,0.0,1.0,99,0.00,09:05,,0.00,WeatherDisplay:WD co,2013-01-17 07:05:00,
2013-01-17 09:10:00,54.3,52.9,28.23,NE,45,0.0,2.0,95,0.00,09:10,,0.00,WeatherDisplay:WD co,2013-01-17 07:10:00,
2013-01-17 09:15:00,54.3,52.6,28.23,NE,41,0.0,3.0,94,0.00,09:15,,0.00,WeatherDisplay:WD co,2013-01-17 07:15:00,
2013-01-17 09:20:00,55.4,53.7,28.23,East,81,0.0,2.0,94,0.00,09:20,,0.00,WeatherDisplay:WD co,2013-01-17 07:20:00,
2013-01-17 09:25:00,59.0,57.3,28.23,East,82,0.0,1.0,94,0.00,09:25,,0.00,WeatherDisplay:WD co,2013-01-17 07:25:00,
2013-01-17 09:30:00,59.2,56.2,28.23,NNW,348,0.0,2.0,90,0.00,09:30,,0.00,WeatherDisplay:WD co,2013-01-17 07:30:00,
2013-01-17 09:35:00,59.5,55.7,28.23,NNE,22,0.0,2.0,87,0.00,09:35,,0.00,WeatherDisplay:WD co,2013-01-17 07:35:00,
2013-01-17 09:40:00,58.8,55.0,28.23,NE,45,0.0,0.0,87,0.00,09:40,,0.00,WeatherDisplay:WD co,2013-01-17 07:40:00,
2013-01-17 09:45:00,57.9,54.1,28.23,NE,45,0.0,1.0,87,0.00,09:45,,0.00,WeatherDisplay:WD co,2013-01-17 07:45:00,
2013-01-17 09:50:00,56.8,53.0,28.23,NE,45,0.0,1.0,87,0.00,09:50,,0.00,WeatherDisplay:WD co,2013-01-17 07:50:00,
2013-01-17 09:55:00,56.1,52.6,28.24,West,270,0.0,2.0,88,0.00,09:55,,0.00,WeatherDisplay:WD co,2013-01-17 07:55:00,
2013-01-17 10:00:00,55.8,52.6,28.23,NNE,30,0.0,2.0,89,0.00,10:00,,0.00,WeatherDisplay:WD co,2013-01-17 08:00:00,
2013-01-17 10:10:00,55.6,53.0,28.22,NE,45,0.0,2.0,91,0.00,10:10,,0.00,WeatherDisplay:WD co,2013-01-17 08:10:00,
2013-01-17 10:15:00,57.4,54.5,28.22,NNW,346,2.0,4.0,90,0.00,10:15,,0.00,WeatherDisplay:WD co,2013-01-17 08:15:00,
2013-01-17 10:20:00,58.5,54.6,28.23,NNW,331,1.0,7.0,87,0.00,10:20,,0.00,WeatherDisplay:WD co,2013-01-17 08:20:00,
2013-01-17 10:30:00,59.2,54.7,28.21,NE,45,3.0,7.0,85,0.00,10:30,,0.00,WeatherDisplay:WD co,2013-01-17 08:30:00,
2013-01-17 10:35:00,59.5,54.4,28.22,SE,144,2.0,8.0,83,0.00,10:35,,0.00,WeatherDisplay:WD co,2013-01-17 08:35:00,
2013-01-17 10:40:00,60.8,55.6,28.21,South,189,2.0,7.0,83,0.00,10:40,,0.00,WeatherDisplay:WD co,2013-01-17 08:40:00,
2013-01-17 10:45:00,61.7,56.5,28.22,South,182,1.0,5.0,83,0.00,10:45,,0.00,WeatherDisplay:WD co,2013-01-17 08:45:00,
2013-01-17 10:50:00,63.1,57.9,28.22,SW,230,0.0,4.0,83,0.00,10:50,,0.00,WeatherDisplay:WD co,2013-01-17 08:50:00,
2013-01-17 10:55:00,65.1,58.1,28.22,West,279,1.0,4.0,78,0.00,10:55,,0.00,WeatherDisplay:WD co,2013-01-17 08:55:00,
2013-01-17 11:00:00,65.1,58.1,28.22,NW,320,0.0,4.0,78,0.00,11:00,,0.00,WeatherDisplay:WD co,2013-01-17 09:00:00,
2013-01-17 11:05:00,64.0,56.3,28.22,WNW,287,0.0,4.0,76,0.00,11:05,,0.00,WeatherDisplay:WD co,2013-01-17 09:05:00,
2013-01-17 11:10:00,63.1,55.8,28.22,NNW,346,1.0,4.0,77,0.00,11:10,,0.00,WeatherDisplay:WD co,2013-01-17 09:10:00,
2013-01-17 11:15:00,62.4,55.5,28.22,NW,306,1.0,4.0,78,0.00,11:15,,0.00,WeatherDisplay:WD co,2013-01-17 09:15:00,
2013-01-17 11:20:00,61.9,54.9,28.22,NW,322,1.0,5.0,78,0.00,11:20,,0.00,WeatherDisplay:WD co,2013-01-17 09:20:00,
2013-01-17 11:25:00,61.5,55.3,28.22,NW,306,0.0,6.0,80,0.00,11:25,,0.00,WeatherDisplay:WD co,2013-01-17 09:25:00,
2013-01-17 11:30:00,61.9,56.0,28.21,West,261,0.0,3.0,81,0.00,11:30,,0.00,WeatherDisplay:WD co,2013-01-17 09:30:00,
2013-01-17 11:35:00,63.3,57.0,28.21,NW,323,0.0,4.0,80,0.00,11:35,,0.00,WeatherDisplay:WD co,2013-01-17 09:35:00,
2013-01-17 11:40:00,63.9,56.9,28.21,NNW,343,0.0,4.0,78,0.00,11:40,,0.00,WeatherDisplay:WD co,2013-01-17 09:40:00,
2013-01-17 11:45:00,64.2,57.2,28.20,North,357,0.0,2.0,78,0.00,11:45,,0.00,WeatherDisplay:WD co,2013-01-17 09:45:00,
2013-01-17 11:50:00,63.9,56.5,28.21,NNW,336,0.0,3.0,77,0.00,11:50,,0.00,WeatherDisplay:WD co,2013-01-17 09:50:00,
2013-01-17 12:00:00,62.1,54.8,28.19,SW,235,1.0,4.0,77,0.00,12:00,,0.00,WeatherDisplay:WD co,2013-01-17 10:00:00,
2013-01-17 12:05:00,61.3,55.1,28.20,North,354,1.0,5.0,80,0.00,12:05,,0.00,WeatherDisplay:WD co,2013-01-17 10:05:00,
2013-01-17 12:10:00,61.3,55.1,28.19,NW,312,3.0,5.0,80,0.00,12:10,,0.00,WeatherDisplay:WD co,2013-01-17 10:10:00,
2013-01-17 12:15:00,61.2,55.3,28.20,NE,53,1.0,6.0,81,0.00,12:15,,0.00,WeatherDisplay:WD co,2013-01-17 10:15:00,
2013-01-17 12:20:00,61.0,55.4,28.20,NNE,15,1.0,5.0,82,0.00,12:20,,0.00,WeatherDisplay:WD co,2013-01-17 10:20:00,
2013-01-17 12:25:00,61.2,56.0,28.19,NE,47,1.0,4.0,83,0.00,12:25,,0.00,WeatherDisplay:WD co,2013-01-17 10:25:00,
2013-01-17 12:30:00,61.5,56.3,28.20,NE,43,0.0,5.0,83,0.00,12:30,,0.00,WeatherDisplay:WD co,2013-01-17 10:30:00,
2013-01-17 12:35:00,61.7,55.5,28.20,NW,310,1.0,4.0,80,0.00,12:35,,0.00,WeatherDisplay:WD co,2013-01-17 10:35:00,
2013-01-17 12:40:00,61.7,55.5,28.20,NW,315,1.0,5.0,80,0.00,12:40,,0.00,WeatherDisplay:WD co,2013-01-17 10:40:00,
2013-01-17 12:45:00,62.1,55.8,28.20,NNW,342,2.0,6.0,80,0.00,12:45,,0.00,WeatherDisplay:WD co,2013-01-17 10:45:00,
2013-01-17 12:50:00,62.4,56.2,28.19,North,349,0.0,4.0,80,0.00,12:50,,0.00,WeatherDisplay:WD co,2013-01-17 10:50:00,
2013-01-17 12:55:00,64.4,57.0,28.19,ENE,58,2.0,5.0,77,0.00,12:55,,0.00,WeatherDisplay:WD co,2013-01-17 10:55:00,
2013-01-17 13:00:00,65.3,57.9,28.19,East,90,1.0,4.0,77,0.00,13:00,,0.00,WeatherDisplay:WD co,2013-01-17 11:00:00,
2013-01-17 13:05:00,66.7,58.6,28.19,East,79,1.0,5.0,75,0.00,13:05,,0.00,WeatherDisplay:WD co,2013-01-17 11:05:00,
2013-01-17 13:10:00,67.5,58.9,28.19,NNE,15,1.0,5.0,74,0.00,13:10,,0.00,WeatherDisplay:WD co,2013-01-17 11:10:00,
2013-01-17 13:15:00,67.6,58.7,28.19,NNW,341,1.0,5.0,73,0.00,13:15,,0.00,WeatherDisplay:WD co,2013-01-17 11:15:00,
2013-01-17 13:20:00,66.7,57.8,28.18,NE,55,1.0,5.0,73,0.00,13:20,,0.00,WeatherDisplay:WD co,2013-01-17 11:20:00,
2013-01-17 13:25:00,65.7,57.1,28.18,East,79,2.0,7.0,74,0.00,13:25,,0.00,WeatherDisplay:WD co,2013-01-17 11:25:00,
2013-01-17 13:30:00,64.0,56.7,28.18,East,86,2.0,4.0,77,0.00,13:30,,0.00,WeatherDisplay:WD co,2013-01-17 11:30:00,
2013-01-17 13:35:00,62.8,56.5,28.18,ENE,70,2.0,6.0,80,0.00,13:35,,0.00,WeatherDisplay:WD co,2013-01-17 11:35:00,
2013-01-17 13:40:00,62.2,56.7,28.18,ENE,60,1.0,4.0,82,0.00,13:40,,0.00,WeatherDisplay:WD co,2013-01-17 11:40:00,
2013-01-17 13:45:00,61.7,56.5,28.17,East,81,1.0,4.0,83,0.00,13:45,,0.00,WeatherDisplay:WD co,2013-01-17 11:45:00,
2013-01-17 13:50:00,61.3,56.5,28.18,ESE,111,1.0,5.0,84,0.00,13:50,,0.00,WeatherDisplay:WD co,2013-01-17 11:50:00,
2013-01-17 14:00:00,61.3,56.5,28.18,NW,326,1.0,4.0,84,0.00,14:00,,0.00,WeatherDisplay:WD co,2013-01-17 12:00:00,
2013-01-17 14:05:00,61.3,56.5,28.19,South,185,1.0,5.0,84,0.00,14:05,,0.00,WeatherDisplay:WD co,2013-01-17 12:05:00,
2013-01-17 14:10:00,61.2,56.6,28.19,West,259,0.0,3.0,85,0.00,14:10,,0.00,WeatherDisplay:WD co,2013-01-17 12:10:00,
2013-01-17 14:15:00,61.0,56.4,28.18,NNW,329,3.0,6.0,85,0.00,14:15,,0.00,WeatherDisplay:WD co,2013-01-17 12:15:00,
2013-01-17 14:20:00,60.8,56.6,28.18,NNE,25,1.0,4.0,86,0.00,14:20,,0.00,WeatherDisplay:WD co,2013-01-17 12:20:00,
2013-01-17 14:25:00,60.6,56.7,28.18,ENE,62,1.0,5.0,87,0.00,14:25,,0.00,WeatherDisplay:WD co,2013-01-17 12:25:00,
2013-01-17 14:30:00,60.6,56.7,28.17,North,9,1.0,6.0,87,0.00,14:30,,0.00,WeatherDisplay:WD co,2013-01-17 12:30:00,
2013-01-17 14:35:00,60.6,56.7,28.17,WNW,285,3.0,5.0,87,0.00,14:35,,0.00,WeatherDisplay:WD co,2013-01-17 12:35:00,
2013-01-17 14:45:00,60.4,56.6,28.17,ENE,66,2.0,4.0,87,0.00,14:45,,0.00,WeatherDisplay:WD co,2013-01-17 12:45:00,
2013-01-17 14:50:00,60.6,57.0,28.17,East,92,1.0,4.0,88,0.00,14:50,,0.00,WeatherDisplay:WD co,2013-01-17 12:50:00,
2013-01-17 14:55:00,60.8,57.5,28.17,SE,128,1.0,4.0,89,0.00,14:55,,0.00,WeatherDisplay:WD co,2013-01-17 12:55:00,
2013-01-17 15:05:00,60.6,57.7,28.17,NE,41,1.0,4.0,90,0.00,15:05,,0.00,WeatherDisplay:WD co,2013-01-17 13:05:00,
2013-01-17 15:10:00,60.8,58.2,28.16,NE,41,0.0,4.0,91,0.00,15:10,,0.00,WeatherDisplay:WD co,2013-01-17 13:10:00,
2013-01-17 15:15:00,61.0,58.6,28.17,ENE,65,1.0,4.0,92,0.00,15:15,,0.00,WeatherDisplay:WD co,2013-01-17 13:15:00,
2013-01-17 15:20:00,61.2,59.1,28.16,NE,52,0.0,4.0,93,0.00,15:20,,0.00,WeatherDisplay:WD co,2013-01-17 13:20:00,
2013-01-17 15:25:00,61.3,59.0,28.17,South,180,1.0,4.0,92,0.00,15:25,,0.00,WeatherDisplay:WD co,2013-01-17 13:25:00,
2013-01-17 15:30:00,61.2,58.8,28.17,NNW,338,1.0,4.0,92,0.00,15:30,,0.00,WeatherDisplay:WD co,2013-01-17 13:30:00,
2013-01-17 15:35:00,61.2,58.5,28.17,WNW,294,0.0,4.0,91,0.00,15:35,,0.00,WeatherDisplay:WD co,2013-01-17 13:35:00,
2013-01-17 15:40:00,61.2,58.5,28.16,West,277,0.0,4.0,91,0.00,15:40,,0.00,WeatherDisplay:WD co,2013-01-17 13:40:00,
2013-01-17 15:45:00,61.0,58.6,28.16,NE,43,1.0,4.0,92,0.00,15:45,,0.00,WeatherDisplay:WD co,2013-01-17 13:45:00,
2013-01-17 15:50:00,61.0,58.6,28.16,East,98,1.0,4.0,92,0.00,15:50,,0.00,WeatherDisplay:WD co,2013-01-17 13:50:00,
2013-01-17 16:00:00,61.2,59.1,28.17,East,93,1.0,3.0,93,0.00,16:00,,0.00,WeatherDisplay:WD co,2013-01-17 14:00:00,
2013-01-17 16:05:00,61.2,59.1,28.16,SE,142,0.0,4.0,93,0.00,16:05,,0.00,WeatherDisplay:WD co,2013-01-17 14:05:00,
2013-01-17 16:10:00,61.3,59.3,28.17,NE,39,3.0,7.0,93,0.00,16:10,,0.00,WeatherDisplay:WD co,2013-01-17 14:10:00,
2013-01-17 16:15:00,61.3,59.0,28.16,NE,51,3.0,9.0,92,0.00,16:15,,0.00,WeatherDisplay:WD co,2013-01-17 14:15:00,
2013-01-17 16:20:00,61.2,58.8,28.16,East,96,1.0,8.0,92,0.00,16:20,,0.00,WeatherDisplay:WD co,2013-01-17 14:20:00,
2013-01-17 16:25:00,61.2,58.5,28.16,NNE,28,1.0,6.0,91,0.00,16:25,,0.00,WeatherDisplay:WD co,2013-01-17 14:25:00,
2013-01-17 16:35:00,60.8,58.8,28.16,West,263,2.0,7.0,93,0.00,16:35,,0.00,WeatherDisplay:WD co,2013-01-17 14:35:00,
2013-01-17 16:40:00,60.6,58.9,28.16,South,173,1.0,5.0,94,0.00,16:40,,0.00,WeatherDisplay:WD co,2013-01-17 14:40:00,
2013-01-17 16:45:00,60.4,59.0,28.16,NNW,341,1.0,6.0,95,0.00,16:45,,0.00,WeatherDisplay:WD co,2013-01-17 14:45:00,
2013-01-17 16:50:00,60.4,59.3,28.15,North,3,1.0,6.0,96,0.00,16:50,,0.00,WeatherDisplay:WD co,2013-01-17 14:50:00,
2013-01-17 16:55:00,60.4,59.3,28.15,NE,55,2.0,7.0,96,0.00,16:55,,0.00,WeatherDisplay:WD co,2013-01-17 14:55:00,
2013-01-17 17:00:00,60.3,59.1,28.15,ENE,62,1.0,6.0,96,0.00,17:00,,0.00,WeatherDisplay:WD co,2013-01-17 15:00:00,
2013-01-17 17:05:00,60.3,59.1,28.15,NNW,334,1.0,8.0,96,0.00,17:05,,0.00,WeatherDisplay:WD co,2013-01-17 15:05:00,
2013-01-17 17:10:00,60.1,58.9,28.15,WNW,285,1.0,4.0,96,0.00,17:10,,0.00,WeatherDisplay:WD co,2013-01-17 15:10:00,
2013-01-17 17:15:00,60.1,58.9,28.15,NE,39,1.0,6.0,96,0.00,17:15,,0.00,WeatherDisplay:WD co,2013-01-17 15:15:00,
2013-01-17 17:20:00,60.1,58.9,28.15,WNW,295,1.0,5.0,96,0.00,17:20,,0.00,WeatherDisplay:WD co,2013-01-17 15:20:00,
2013-01-17 17:25:00,59.9,59.0,28.15,West,266,1.0,4.0,97,0.00,17:25,,0.00,WeatherDisplay:WD co,2013-01-17 15:25:00,
2013-01-17 17:30:00,59.9,58.8,28.15,WSW,255,1.0,8.0,96,0.00,17:30,,0.00,WeatherDisplay:WD co,2013-01-17 15:30:00,
2013-01-17 17:35:00,59.9,58.2,28.15,ENE,72,1.0,8.0,94,0.00,17:35,,0.00,WeatherDisplay:WD co,2013-01-17 15:35:00,
2013-01-17 17:40:00,59.9,57.9,28.14,NE,34,1.0,8.0,93,0.00,17:40,,0.00,WeatherDisplay:WD co,2013-01-17 15:40:00,
2013-01-17 17:45:00,60.1,58.0,28.15,SW,226,1.0,7.0,93,0.00,17:45,,0.00,WeatherDisplay:WD co,2013-01-17 15:45:00,
2013-01-17 17:50:00,59.9,58.2,28.15,SSW,192,1.0,4.0,94,0.00,17:50,,0.00,WeatherDisplay:WD co,2013-01-17 15:50:00,
2013-01-17 18:00:00,59.7,58.0,28.15,SSE,152,1.0,5.0,94,0.00,18:00,,0.00,WeatherDisplay:WD co,2013-01-17 16:00:00,
2013-01-17 18:05:00,59.9,58.5,28.15,ENE,68,1.0,7.0,95,0.00,18:05,,0.00,WeatherDisplay:WD co,2013-01-17 16:05:00,
2013-01-17 18:10:00,59.9,58.5,28.15,WSW,255,3.0,6.0,95,0.00,18:10,,0.00,WeatherDisplay:WD co,2013-01-17 16:10:00,
2013-01-17 18:15:00,59.9,58.8,28.15,WNW,294,1.0,6.0,96,0.00,18:15,,0.00,WeatherDisplay:WD co,2013-01-17 16:15:00,
2013-01-17 18:20:00,59.9,58.8,28.15,ESE,112,1.0,6.0,96,0.00,18:20,,0.00,WeatherDisplay:WD co,2013-01-17 16:20:00,
2013-01-17 18:25:00,59.9,59.0,28.14,ENE,71,2.0,6.0,97,0.00,18:25,,0.00,WeatherDisplay:WD co,2013-01-17 16:25:00,
2013-01-17 18:30:00,59.9,59.0,28.15,North,8,1.0,6.0,97,0.00,18:30,,0.00,WeatherDisplay:WD co,2013-01-17 16:30:00,
2013-01-17 18:35:00,59.9,59.0,28.14,SSE,168,1.0,4.0,97,0.00,18:35,,0.00,WeatherDisplay:WD co,2013-01-17 16:35:00,
2013-01-17 18:40:00,59.9,59.0,28.14,West,262,2.0,6.0,97,0.00,18:40,,0.00,WeatherDisplay:WD co,2013-01-17 16:40:00,
2013-01-17 18:45:00,59.9,59.0,28.14,North,10,1.0,5.0,97,0.00,18:45,,0.00,WeatherDisplay:WD co,2013-01-17 16:45:00,
2013-01-17 18:50:00,60.1,59.2,28.14,NE,47,1.0,8.0,97,0.00,18:50,,0.00,WeatherDisplay:WD co,2013-01-17 16:50:00,
2013-01-17 18:55:00,60.1,59.2,28.13,NNE,25,1.0,6.0,97,0.00,18:55,,0.00,WeatherDisplay:WD co,2013-01-17 16:55:00,
2013-01-17 19:00:00,60.1,58.9,28.13,ENE,76,1.0,7.0,96,0.00,19:00,,0.00,WeatherDisplay:WD co,2013-01-17 17:00:00,
2013-01-17 19:10:00,60.3,59.4,28.13,NNE,28,1.0,11.0,97,0.00,19:10,,0.00,WeatherDisplay:WD co,2013-01-17 17:10:00,
2013-01-17 19:15:00,60.3,59.1,28.12,NE,51,5.0,11.0,96,0.00,19:15,,0.00,WeatherDisplay:WD co,2013-01-17 17:15:00,
2013-01-17 19:20:00,60.3,58.2,28.12,NE,53,2.0,13.0,93,0.00,19:20,,0.00,WeatherDisplay:WD co,2013-01-17 17:20:00,
2013-01-17 19:25:00,60.1,58.3,28.12,ENE,74,1.0,5.0,94,0.00,19:25,,0.00,WeatherDisplay:WD co,2013-01-17 17:25:00,
2013-01-17 19:30:00,60.1,58.6,28.12,SW,218,3.0,8.0,95,0.00,19:30,,0.00,WeatherDisplay:WD co,2013-01-17 17:30:00,
2013-01-17 19:35:00,60.1,58.6,28.13,SW,224,2.0,8.0,95,0.00,19:35,,0.00,WeatherDisplay:WD co,2013-01-17 17:35:00,
2013-01-17 19:40:00,59.9,58.8,28.13,NE,41,1.0,9.0,96,0.00,19:40,,0.00,WeatherDisplay:WD co,2013-01-17 17:40:00,
2013-01-17 19:45:00,59.9,58.8,28.13,North,355,1.0,8.0,96,0.00,19:45,,0.00,WeatherDisplay:WD co,2013-01-17 17:45:00,
2013-01-17 19:50:00,59.7,58.6,28.13,North,351,3.0,8.0,96,0.00,19:50,,0.00,WeatherDisplay:WD co,2013-01-17 17:50:00,
2013-01-17 19:55:00,59.7,58.6,28.13,East,79,1.0,8.0,96,0.00,19:55,,0.00,WeatherDisplay:WD co,2013-01-17 17:55:00,
2013-01-17 20:00:00,59.7,58.0,28.13,SSE,158,3.0,8.0,94,0.00,20:00,,0.00,WeatherDisplay:WD co,2013-01-17 18:00:00,
2013-01-17 20:05:00,59.7,57.7,28.13,East,86,3.0,8.0,93,0.00,20:05,,0.00,WeatherDisplay:WD co,2013-01-17 18:05:00,
2013-01-17 20:10:00,59.7,57.7,28.14,East,84,1.0,5.0,93,0.00,20:10,,0.00,WeatherDisplay:WD co,2013-01-17 18:10:00,
2013-01-17 20:15:00,59.7,58.0,28.13,NE,54,1.0,7.0,94,0.00,20:15,,0.00,WeatherDisplay:WD co,2013-01-17 18:15:00,
2013-01-17 20:25:00,59.7,58.6,28.13,NE,51,1.0,4.0,96,0.00,20:25,,0.00,WeatherDisplay:WD co,2013-01-17 18:25:00,
2013-01-17 20:30:00,59.7,58.6,28.13,NE,40,1.0,6.0,96,0.00,20:30,,0.00,WeatherDisplay:WD co,2013-01-17 18:30:00,
2013-01-17 20:35:00,59.7,58.9,28.13,NE,54,1.0,6.0,97,0.00,20:35,,0.00,WeatherDisplay:WD co,2013-01-17 18:35:00,
2013-01-17 20:40:00,59.7,59.2,28.12,NNE,28,0.0,6.0,98,0.00,20:40,,0.00,WeatherDisplay:WD co,2013-01-17 18:40:00,
2013-01-17 20:45:00,59.7,59.2,28.13,ENE,75,0.0,5.0,98,0.00,20:45,,0.00,WeatherDisplay:WD co,2013-01-17 18:45:00,
2013-01-17 20:50:00,59.7,59.2,28.12,ESE,122,3.0,5.0,98,0.00,20:50,,0.00,WeatherDisplay:WD co,2013-01-17 18:50:00,
2013-01-17 20:55:00,59.7,59.2,28.12,NNE,28,2.0,5.0,98,0.00,20:55,,0.00,WeatherDisplay:WD co,2013-01-17 18:55:00,
2013-01-17 21:00:00,59.5,59.0,28.12,SSE,163,1.0,5.0,98,0.00,21:00,,0.00,WeatherDisplay:WD co,2013-01-17 19:00:00,
2013-01-17 21:05:00,59.5,59.0,28.12,SE,138,0.0,4.0,98,0.00,21:05,,0.00,WeatherDisplay:WD co,2013-01-17 19:05:00,
2013-01-17 21:10:00,59.5,59.0,28.11,SSE,164,1.0,7.0,98,0.00,21:10,,0.00,WeatherDisplay:WD co,2013-01-17 19:10:00,
2013-01-17 21:15:00,59.5,58.4,28.11,SSE,154,1.0,6.0,96,0.00,21:15,,0.00,WeatherDisplay:WD co,2013-01-17 19:15:00,
2013-01-17 21:20:00,59.5,58.1,28.11,ESE,119,0.0,6.0,95,0.00,21:20,,0.00,WeatherDisplay:WD co,2013-01-17 19:20:00,
2013-01-17 21:30:00,59.7,58.6,28.12,ESE,111,2.0,5.0,96,0.00,21:30,,0.00,WeatherDisplay:WD co,2013-01-17 19:30:00,
2013-01-17 21:35:00,59.5,58.4,28.12,ESE,110,0.0,4.0,96,0.00,21:35,,0.00,WeatherDisplay:WD co,2013-01-17 19:35:00,
2013-01-17 21:40:00,59.5,58.4,28.11,ESE,121,1.0,4.0,96,0.00,21:40,,0.00,WeatherDisplay:WD co,2013-01-17 19:40:00,
2013-01-17 21:50:00,59.7,58.0,28.12,ESE,110,1.0,4.0,94,0.00,21:50,,0.00,WeatherDisplay:WD co,2013-01-17 19:50:00,
2013-01-17 21:55:00,59.7,58.3,28.12,ENE,59,1.0,5.0,95,0.00,21:55,,0.00,WeatherDisplay:WD co,2013-01-17 19:55:00,
2013-01-17 22:05:00,59.7,57.7,28.11,ENE,66,3.0,7.0,93,0.00,22:05,,0.00,WeatherDisplay:WD co,2013-01-17 20:05:00,
2013-01-17 22:10:00,59.9,57.6,28.12,SE,144,2.0,7.0,92,0.00,22:10,,0.00,WeatherDisplay:WD co,2013-01-17 20:10:00,
2013-01-17 22:15:00,59.9,57.6,28.11,ESE,104,3.0,8.0,92,0.00,22:15,,0.00,WeatherDisplay:WD co,2013-01-17 20:15:00,
2013-01-17 22:20:00,59.9,57.6,28.11,ESE,110,2.0,6.0,92,0.00,22:20,,0.00,WeatherDisplay:WD co,2013-01-17 20:20:00,
2013-01-17 22:25:00,59.9,57.9,28.11,NNW,344,2.0,5.0,93,0.00,22:25,,0.00,WeatherDisplay:WD co,2013-01-17 20:25:00,
2013-01-17 22:30:00,59.9,58.2,28.11,NW,316,1.0,5.0,94,0.00,22:30,,0.00,WeatherDisplay:WD co,2013-01-17 20:30:00,
2013-01-17 22:35:00,59.9,58.8,28.11,East,91,2.0,8.0,96,0.00,22:35,,0.00,WeatherDisplay:WD co,2013-01-17 20:35:00,
2013-01-17 22:40:00,60.1,59.2,28.10,East,90,1.0,10.0,97,0.00,22:40,,0.00,WeatherDisplay:WD co,2013-01-17 20:40:00,
2013-01-17 22:45:00,59.9,59.0,28.10,East,84,3.0,8.0,97,0.00,22:45,,0.00,WeatherDisplay:WD co,2013-01-17 20:45:00,
2013-01-17 22:50:00,60.1,59.5,28.10,ENE,77,2.0,7.0,98,0.00,22:50,,0.00,WeatherDisplay:WD co,2013-01-17 20:50:00,
2013-01-17 22:55:00,59.9,59.3,28.10,NE,43,1.0,7.0,98,0.00,22:55,,0.00,WeatherDisplay:WD co,2013-01-17 20:55:00,
2013-01-17 23:00:00,59.9,59.3,28.10,ENE,72,1.0,8.0,98,0.00,23:00,,0.00,WeatherDisplay:WD co,2013-01-17 21:00:00,
2013-01-17 23:10:00,59.9,59.0,28.10,NE,48,3.0,8.0,97,0.00,23:10,,0.00,WeatherDisplay:WD co,2013-01-17 21:10:00,
2013-01-17 23:15:00,59.9,59.3,28.09,West,260,3.0,7.0,98,0.00,23:15,,0.00,WeatherDisplay:WD co,2013-01-17 21:15:00,
2013-01-17 23:20:00,60.1,59.5,28.09,WNW,282,2.0,8.0,98,0.00,23:20,,0.00,WeatherDisplay:WD co,2013-01-17 21:20:00,
2013-01-17 23:25:00,60.1,59.5,28.09,NNW,333,2.0,7.0,98,0.00,23:25,,0.00,WeatherDisplay:WD co,2013-01-17 21:25:00,
2013-01-17 23:30:00,60.1,59.5,28.09,NE,52,3.0,9.0,98,0.00,23:30,,0.00,WeatherDisplay:WD co,2013-01-17 21:30:00,
2013-01-17 23:35:00,60.1,59.2,28.09,ENE,59,1.0,9.0,97,0.00,23:35,,0.00,WeatherDisplay:WD co,2013-01-17 21:35:00,
2013-01-17 23:40:00,60.1,59.5,28.09,NNE,32,0.0,8.0,98,0.00,23:40,,0.00,WeatherDisplay:WD co,2013-01-17 21:40:00,
2013-01-17 23:45:00,60.1,59.2,28.09,ENE,64,2.0,8.0,97,0.00,23:45,,0.00,WeatherDisplay:WD co,2013-01-17 21:45:00,
2013-01-17 23:50:00,60.1,59.2,28.08,NNE,27,3.0,7.0,97,0.00,23:50,,0.00,WeatherDisplay:WD co,2013-01-17 21:50:00,
2013-01-17 23:55:00,60.1,58.9,28.08,NNW,341,5.0,9.0,96,0.00,23:55,,0.00,WeatherDisplay:WD co,2013-01-17 21:55:00,